{"data":{"norad_id":60414,"epoch":"2026-05-24T17:21:25.572960Z","epoch_age_seconds":89052,"freshness":"FRESH","line1":"1 60414U 24141S   26144.72321265  .00002983  00000+0  10785-3 0  9997","line2":"2 60414  53.1583 249.2814 0001031  97.2072 262.9046 15.31704421101227","mean_motion":15.31704421,"eccentricity":0.0001031,"inclination_deg":53.1583,"raan_deg":249.2814,"arg_perigee_deg":97.2072,"mean_anomaly_deg":262.9046,"bstar":0.00010785,"rev_number":10122,"period_min":94.012916608276,"perigee_km":470.02069862692,"apogee_km":471.43293434588,"semimajor_km":6848.8638164864,"source":"CELESTRAK","updated_at":"2026-05-25T13:38:19.270780Z"}}